TimeEDT,TemperatureF,Dew PointF,Humidity,Sea Level PressureIn,VisibilityMPH,Wind Direction,Wind SpeedMPH,Gust SpeedMPH,PrecipitationIn,Events,Conditions,WindDirDegrees,DateUTC
12:15 AM,41.2,33.4,74,30.35,10.0,NNW,4.6,-,N/A,,Clear,340,2013-05-25 04:15:00
12:34 AM,41.4,32.9,72,30.34,10.0,NNW,5.8,-,N/A,,Clear,340,2013-05-25 04:34:00
12:54 AM,42.6,32.5,68,30.35,10.0,NW,4.6,-,N/A,,Clear,310,2013-05-25 04:54:00
1:15 AM,41.4,33.1,72,30.35,10.0,NW,5.8,-,N/A,,Clear,320,2013-05-25 05:15:00
1:34 AM,42.4,32.7,68,30.36,10.0,WNW,8.1,-,N/A,,Clear,290,2013-05-25 05:34:00
1:54 AM,42.3,32.9,69,30.36,10.0,WNW,8.1,-,N/A,,Clear,300,2013-05-25 05:54:00
2:15 AM,41.7,32.0,68,30.36,10.0,NW,8.1,-,N/A,,Clear,310,2013-05-25 06:15:00
2:34 AM,40.8,32.0,71,30.35,10.0,NNW,5.8,-,N/A,,Clear,330,2013-05-25 06:34:00
2:54 AM,39.6,32.0,74,30.35,10.0,North,6.9,-,N/A,,Clear,360,2013-05-25 06:54:00
3:15 AM,39.2,32.5,77,30.35,10.0,NNE,6.9,-,N/A,,Clear,20,2013-05-25 07:15:00
3:34 AM,39.2,32.2,76,30.35,10.0,North,9.2,-,N/A,,Clear,10,2013-05-25 07:34:00
3:54 AM,38.7,33.1,80,30.35,10.0,NNE,8.1,-,N/A,,Clear,20,2013-05-25 07:54:00
4:14 AM,39.6,33.1,78,30.36,10.0,NNE,8.1,-,N/A,,Clear,20,2013-05-25 08:14:00
4:34 AM,39.2,33.3,79,30.36,10.0,NNE,9.2,-,N/A,,Clear,20,2013-05-25 08:34:00
4:55 AM,38.8,33.8,82,30.37,10.0,NNE,6.9,-,N/A,,Clear,30,2013-05-25 08:55:00
5:14 AM,39.6,34.7,83,30.37,10.0,NNE,8.1,-,N/A,,Clear,30,2013-05-25 09:14:00
5:34 AM,39.4,34.7,83,30.38,10.0,NE,6.9,-,N/A,,Clear,40,2013-05-25 09:34:00
5:54 AM,39.0,34.7,84,30.38,10.0,NE,9.2,-,N/A,,Clear,50,2013-05-25 09:54:00
6:14 AM,39.7,35.1,83,30.38,10.0,NE,9.2,-,N/A,,Clear,50,2013-05-25 10:14:00
6:34 AM,39.6,35.1,84,30.38,10.0,NE,8.1,-,N/A,,Clear,50,2013-05-25 10:34:00
6:55 AM,41.9,36.0,79,30.39,10.0,NE,9.2,-,N/A,,Clear,50,2013-05-25 10:55:00
7:14 AM,43.0,36.5,78,30.40,10.0,ENE,10.4,-,N/A,,Clear,60,2013-05-25 11:14:00
7:34 AM,43.9,36.3,75,30.40,10.0,ENE,9.2,-,N/A,,Clear,60,2013-05-25 11:34:00
7:55 AM,43.9,35.6,73,30.40,10.0,ENE,9.2,-,N/A,,Clear,60,2013-05-25 11:55:00
8:14 AM,45.1,36.7,72,30.42,10.0,ENE,6.9,-,N/A,,Clear,70,2013-05-25 12:14:00
8:34 AM,45.9,36.5,70,30.42,10.0,East,8.1,-,N/A,,Clear,80,2013-05-25 12:34:00
8:55 AM,46.8,37.4,70,30.44,10.0,East,5.8,-,N/A,,Clear,90,2013-05-25 12:55:00
9:14 AM,47.3,37.6,69,30.45,10.0,East,4.6,-,N/A,,Clear,90,2013-05-25 13:14:00
9:34 AM,48.2,36.9,65,30.45,10.0,East,8.1,-,N/A,,Clear,90,2013-05-25 13:34:00
9:55 AM,48.9,35.8,61,30.45,10.0,Calm,Calm,-,N/A,,Clear,0,2013-05-25 13:55:00
10:14 AM,50.2,34.9,56,30.45,10.0,South,3.5,-,N/A,,Clear,170,2013-05-25 14:14:00
10:34 AM,50.9,35.6,56,30.45,10.0,Calm,Calm,-,N/A,,Clear,0,2013-05-25 14:34:00
10:55 AM,51.1,36.1,57,30.44,10.0,NE,5.8,-,N/A,,Clear,50,2013-05-25 14:55:00
11:14 AM,51.1,36.1,57,30.43,10.0,NNE,4.6,-,N/A,,Clear,30,2013-05-25 15:14:00
11:34 AM,52.7,36.0,53,30.42,10.0,Calm,Calm,-,N/A,,Clear,0,2013-05-25 15:34:00
11:55 AM,53.8,36.3,52,30.42,10.0,Calm,Calm,-,N/A,,Clear,0,2013-05-25 15:55:00
12:14 PM,53.8,34.2,47,30.42,10.0,WSW,5.8,-,N/A,,Clear,240,2013-05-25 16:14:00
12:35 PM,54.0,32.9,45,30.42,10.0,South,6.9,-,N/A,,Clear,190,2013-05-25 16:35:00
12:54 PM,54.0,33.1,45,30.40,10.0,South,3.5,-,N/A,,Clear,180,2013-05-25 16:54:00
1:14 PM,55.0,32.5,43,30.39,10.0,Calm,Calm,-,N/A,,Clear,0,2013-05-25 17:14:00
1:35 PM,55.4,32.4,42,30.39,10.0,SSE,4.6,-,N/A,,Clear,150,2013-05-25 17:35:00
1:54 PM,56.3,31.6,39,30.38,10.0,South,8.1,-,N/A,,Clear,190,2013-05-25 17:54:00
2:14 PM,55.8,31.5,40,30.38,10.0,SSW,5.8,-,N/A,,Clear,200,2013-05-25 18:14:00
2:35 PM,56.3,31.6,39,30.37,10.0,SSW,9.2,-,N/A,,Clear,200,2013-05-25 18:35:00
2:54 PM,56.3,31.5,39,30.38,10.0,WSW,6.9,-,N/A,,Clear,240,2013-05-25 18:54:00
3:14 PM,57.4,32.7,39,30.38,10.0,WSW,6.9,-,N/A,,Clear,240,2013-05-25 19:14:00
3:35 PM,58.1,32.2,38,30.37,10.0,WSW,9.2,-,N/A,,Clear,250,2013-05-25 19:35:00
3:54 PM,59.4,34.3,39,30.37,10.0,West,11.5,-,N/A,,Clear,270,2013-05-25 19:54:00
4:14 PM,59.7,32.9,36,30.36,10.0,West,8.1,-,N/A,,Clear,260,2013-05-25 20:14:00
4:35 PM,59.0,34.0,39,30.36,10.0,West,4.6,-,N/A,,Clear,260,2013-05-25 20:35:00
4:54 PM,59.0,34.9,40,30.35,10.0,WSW,4.6,-,N/A,,Clear,250,2013-05-25 20:54:00
5:14 PM,58.8,33.3,38,30.35,10.0,West,8.1,-,N/A,,Clear,260,2013-05-25 21:14:00
5:35 PM,59.2,33.6,38,30.35,10.0,WSW,5.8,-,N/A,,Clear,240,2013-05-25 21:35:00
5:54 PM,59.0,33.6,38,30.35,10.0,West,8.1,-,N/A,,Clear,260,2013-05-25 21:54:00
6:14 PM,58.1,34.0,40,30.35,10.0,West,9.2,-,N/A,,Clear,270,2013-05-25 22:14:00
6:35 PM,58.1,32.7,38,30.34,10.0,West,10.4,-,N/A,,Clear,270,2013-05-25 22:35:00
6:54 PM,57.7,34.2,41,30.34,10.0,West,8.1,-,N/A,,Clear,280,2013-05-25 22:54:00
7:14 PM,57.7,33.8,41,30.34,10.0,West,9.2,-,N/A,,Clear,270,2013-05-25 23:14:00
7:35 PM,57.2,34.0,42,30.33,10.0,West,10.4,-,N/A,,Clear,270,2013-05-25 23:35:00
7:54 PM,56.3,34.0,43,30.33,10.0,West,10.4,-,N/A,,Clear,260,2013-05-25 23:54:00
8:14 PM,54.7,35.1,48,30.32,10.0,West,9.2,-,N/A,,Clear,270,2013-05-26 00:14:00
8:35 PM,53.8,37.4,54,30.32,10.0,West,5.8,-,N/A,,Clear,280,2013-05-26 00:35:00
8:54 PM,53.2,36.0,52,30.32,10.0,West,6.9,-,N/A,,Clear,280,2013-05-26 00:54:00
9:14 PM,52.0,36.3,55,30.32,10.0,WNW,4.6,-,N/A,,Clear,300,2013-05-26 01:14:00
9:35 PM,50.0,36.9,61,30.32,10.0,NW,4.6,-,N/A,,Clear,320,2013-05-26 01:35:00
9:54 PM,48.2,36.0,63,30.33,10.0,North,6.9,-,N/A,,Clear,10,2013-05-26 01:54:00
10:14 PM,50.2,30.9,48,30.33,10.0,North,8.1,-,N/A,,Clear,350,2013-05-26 02:14:00
10:34 PM,48.6,31.5,52,30.33,10.0,North,8.1,-,N/A,,Clear,360,2013-05-26 02:34:00
10:54 PM,49.3,29.8,47,30.33,10.0,North,4.6,-,N/A,,Clear,350,2013-05-26 02:54:00
11:15 PM,48.2,31.1,52,30.33,10.0,NW,6.9,-,N/A,,Clear,320,2013-05-26 03:15:00
11:34 PM,46.6,32.0,57,30.33,10.0,NNW,5.8,-,N/A,,Clear,330,2013-05-26 03:34:00
11:54 PM,47.3,31.3,54,30.33,10.0,NNW,5.8,-,N/A,,Clear,340,2013-05-26 03:54:00